Location: Shandelee
(41.8790°N, 74.8713°W)
Time: 11:44:30
(UTC+00:00)

NOAA 11 - Pass Details

Date: 29 October 2020
Orbit: 833 x 849 km, 98.4° (Epoch: 01 December)

Event Time Altitude Azimuth Distance (km) Brightness Sun altitude
Rises 22:22:53 0° 151° (SSE) 3,381 7.2 -5.5°
Reaches altitude 10° 22:25:17 10° 147° (SSE) 2,449 6.4 -5.9°
Maximum altitude 22:30:33 53° 71° (ENE) 1,022 4.3 -6.9°
Drops below altitude 10° 22:35:49 10° 356° (N) 2,455 6.5 -7.8°
Sets 22:38:14 0° 352° (N) 3,392 7.3 -8.3°
